sat.trackr.live / text

‹ back to catalog

STARLINK-32208

NORAD 60598 · 2024-150R

PAYLOAD ACTIVE UNKNOWN

§ Identity

Operator
Country
US
Launch date
2024-08-20
Launch site
AFETR
Launch vehicle
Mass (kg)
RCS (m²)

Purposes: comms

External: N2YO · Heavens-Above · Gunter

§ Orbital elements

Epoch: 2026-05-25T03:46:16.877856Z

Period
94.11 min
Inclination
53.1606°
Eccentricity
0.0001025
Mean motion
15.30194686 rev/d
Perigee alt
474.5 km
Apogee alt
475.9 km
Semi-major
6,853.4 km
B*
2.7626e-5
RAAN
312.2162°
Arg perigee
94.8922°
Mean anomaly
265.2196°
Rev number
9,974

§ Raw data

STARLINK-322081 60598U 24150R   26145.15713979  .00000459  00000+0  27626-4 0  99942 60598  53.1606 312.2162 0001025  94.8922 265.2196 15.30194686 99743

JSON: /api/v1/satellites/60598 · /tle

For live sub-satellite position, see the globe view (requires WebGL).

§ Visibility from observer

Set your observer location to see the next 7 days of passes ≥ 10°. The values pass through the URL so the page stays shareable.

No JS? Fill the form by hand. The geolocation button needs JavaScript.